Location: Trois-Rivi�res
(46.3500°N, 72.5500°W)
Time: 02:15:16
(UTC-04:00)

Vanguard 2 - All Passes

Search period start: 23 October 2017 00:00
Search period end: 02 November 2017 00:00
Orbit: 554 x 2939 km, 32.9° (Epoch: 22 October)

Date Brightness Start Highest point End Pass type
(mag) Time Alt. Az. Time Alt. Az. Time Alt. Az.
23 Oct - 05:32:29 10° S 05:42:10 18° SE 05:50:40 10° ESE visible
23 Oct - 07:38:23 10° SW 07:52:11 34° SSE 08:02:16 10° ESE daylight
23 Oct - 09:49:01 10° WSW 10:02:02 41° S 10:10:29 10° ESE daylight
23 Oct - 12:01:23 10° WSW 12:10:41 29° SSW 12:16:54 10° SE daylight
24 Oct - 05:47:57 10° SSW 05:59:58 23° SSE 06:10:08 10° ESE visible
24 Oct - 07:55:39 10° SW 08:10:09 38° SSE 08:20:30 10° ESE daylight
24 Oct - 10:06:59 10° WSW 10:19:58 41° S 10:28:21 10° ESE daylight
24 Oct - 12:19:47 10° WSW 12:28:20 25° SSW 12:34:16 10° SSE daylight
25 Oct - 04:04:39 10° SSE 04:08:05 11° SE 04:11:26 10° SE visible
25 Oct - 06:04:12 10° SSW 06:17:48 29° SSE 06:29:00 10° E visible
25 Oct - 08:13:11 10° SW 08:28:07 42° S 08:38:36 10° ESE daylight
25 Oct - 10:25:04 10° WSW 10:37:50 40° SSW 10:46:08 10° SE daylight
25 Oct - 12:38:24 10° WSW 12:45:53 21° SW 12:51:20 10° S daylight
26 Oct - 04:16:44 10° S 04:25:41 16° SE 04:34:09 10° ESE visible
26 Oct - 06:20:58 10° SSW 06:35:39 34° SSE 06:47:31 10° E visible
26 Oct - 08:30:55 10° WSW 08:46:05 44° S 08:56:37 10° ESE daylight
26 Oct - 10:43:15 10° WSW 10:55:39 37° SSW 11:03:47 10° SE daylight
26 Oct - 12:57:24 10° WSW 13:03:19 16° SW 13:07:57 10° S daylight
27 Oct - 04:31:44 10° S 04:43:19 22° SE 04:54:06 10° ESE visible
27 Oct - 06:38:05 10° SW 06:53:33 39° SSE 07:05:50 10° E visible
27 Oct - 08:48:49 10° WSW 09:04:04 46° S 09:14:32 10° ESE daylight
27 Oct - 11:01:32 10° W 11:13:22 34° SSW 11:21:18 10° SE daylight
27 Oct - 13:17:25 10° WSW 13:20:40 12° SW 13:23:29 10° SSW daylight
28 Oct - 04:47:42 10° SSW 05:00:59 27° SSE 05:13:13 10° E visible
28 Oct - 06:55:30 10° SW 07:11:29 43° SSE 07:24:01 10° ESE visible
28 Oct - 09:06:49 10° WSW 09:21:59 45° S 09:32:23 10° ESE daylight
28 Oct - 11:19:57 10° W 11:31:00 29° SSW 11:38:37 10° SSE daylight
29 Oct - 03:02:33 10° SSE 03:09:10 13° SE 03:15:51 10° ESE visible
29 Oct - 05:04:15 10° SSW 05:18:43 33° SSE 05:31:55 10° E visible
29 Oct - 07:13:07 10° WSW 07:29:27 46° S 07:42:05 10° ESE daylight
29 Oct - 09:24:56 10° WSW 09:39:52 44° SSW 09:50:08 10° SE daylight
29 Oct - 11:38:35 10° W 11:48:30 24° SW 11:55:39 10° SSE daylight
30 Oct - 03:16:36 10° S 03:26:37 19° SE 03:36:49 10° ESE visible
30 Oct - 05:21:13 10° SW 05:36:30 38° SSE 05:50:21 10° E visible
30 Oct - 07:30:55 10° WSW 07:47:25 48° S 08:00:05 10° ESE daylight
30 Oct - 09:43:08 10° W 09:57:40 41° SSW 10:07:46 10° SE daylight
30 Oct - 11:57:33 10° W 12:05:53 19° SW 12:12:16 10° S daylight
31 Oct - 03:32:10 10° S 03:44:06 24° SE 03:56:22 10° E visible
31 Oct - 05:38:29 10° SW 05:54:21 43° SSE 06:08:37 10° E visible
31 Oct - 07:48:50 10° WSW 08:05:23 49° S 08:17:59 10° ESE daylight
31 Oct - 10:01:26 10° W 10:15:23 37° SSW 10:25:13 10° SE daylight
31 Oct - 12:17:13 10° WSW 12:23:11 14° SW 12:28:06 10° SSW daylight
01 Nov - 03:48:27 10° SSW 04:01:40 30° SSE 04:15:19 10° E visible
01 Nov - 05:55:59 10° SW 06:12:15 46° SSE 06:26:45 10° E visible
01 Nov - 08:06:52 10° WSW 08:23:19 48° S 08:35:49 10° ESE daylight
01 Nov - 10:19:52 10° W 10:32:59 32° SSW 10:42:28 10° SSE daylight
